sat.trackr.live / text

‹ back to catalog

STARLINK-37164

NORAD 68324 · 2026-059D

PAYLOAD ACTIVE UNKNOWN

§ Identity

Operator
Country
US
Launch date
2026-03-22
Launch site
AFETR
Launch vehicle
Mass (kg)
RCS (m²)

Purposes: comms

External: N2YO · Heavens-Above · Gunter

§ Orbital elements

Epoch: 2026-09-20T04:57:49.649760Z

Period
93.85 min
Inclination
53.1576°
Eccentricity
0.0000913
Mean motion
15.34416170 rev/d
Perigee alt
462.0 km
Apogee alt
463.3 km
Semi-major
6,840.8 km
B*
7.2346e-4
RAAN
162.8741°
Arg perigee
77.5050°
Mean anomaly
282.6054°
Rev number
2,911

§ Raw data

STARLINK-371641 68324U 26059D   26263.20682465  .00024158  00000+0  72346-3 0  99912 68324  53.1576 162.8741 0000913  77.5050 282.6054 15.34416170 29110

JSON: /api/v1/satellites/68324 · /tle

For live sub-satellite position, see the globe view (requires WebGL).

§ Visibility from observer

Set your observer location to see the next 7 days of passes ≥ 10°. The values pass through the URL so the page stays shareable.

No JS? Fill the form by hand. The geolocation button needs JavaScript.